Retour au catalogue

ARIANE 44L+ R/B

ActifHEO
NORAD 22725·ROCKET BODY·🇫🇷 France

Lancé Jul 22, 1993 depuis Guiana Space Centre

Loading…

Prochains Passages (prochaines 24 heures)

TLE

FraisSource: Space-Track

Époque: Sep 14, 2026, 10:14 UTC

1 22725U 93048C   26257.42699897  .00000956  00000-0  10636-2 0  9996
2 22725   7.2008 325.2589 6879143 290.0381  11.7641  2.74967218315579

Suivez ARIANE 44L+ R/B en temps réel avec AllMySat

Download on the App Store